Weather in Naas

Ireland     53°13′10″N   6°39′40″W
temp.,
°C
wind,
m/s
gust,
m/s
humid.,
%
clouds,
%
prec.,
mm/h
press.,
hPa
HPBL,
m
9 may, sun
sun901:00+10s81376100 0.0 989982
04:00+9s71384100 0.2 9871205
07:00+10s91582100 0.4 9871120
10:00+11s9168276 0.1 9861258
13:00+12s101684100 0.4 9861303
16:00+13s11167864 0.4 9851408
19:00+12s91482100 0.5 9861211
22:00+10s81375100 0.0 9871041
10 may, mon
mon1001:00+10s71175100 0.1 9871088
04:00+9sse511818 0.0 986726
07:00+9sse5983100 0.0 987901
10:00+11s698753 0.4 988935
13:00+11s71189100 1.8 988939
16:00+13s5770100 0.6 9891312
19:00+7ssw81296100 3.6 9931090
22:00+7ssw81491100 2.1 996760
11 may, tue
tue1101:00+6s61388100 2.1 999694
04:00+6s51383100 0.0 1000664
07:00+6se398765 0.0 1001359
10:00+11sse57640 0.0 10011225
13:00+13sse666143 0.3 10021719
16:00+14sse555350 0.3 10021963
19:00+12se24714 0.4 1002344
22:00+6e22905 0.2 100323
12 may, wed
wed1201:00+4nne119229 0.2 100311
04:00+4n35978 0.0 100399
07:00+5n139642 0.0 1004101
10:00+9nnw248992 0.1 1004582
13:00+9nw459293 1.1 1005596
16:00+12wnw458097 1.0 10051193
19:00+10wnw3791100 2.5 1005344
22:00+6w239512 0.3 100740
13 may, thu
thu1301:00+5wsw229696 0.3 100719
04:00+4wsw229851 0.0 100724
07:00+5wsw129745 0.0 100876
10:00+10wnw238678 0.0 1008604
13:00+12n227797 0.7 1008826
16:00+14nne116956 0.9 10081086
19:00+12n228586 3.7 1009257
22:00+8ne369797 1.5 1010142